When you browse on this site, cookies collect data to enhance your experience and personalize the content and advertising you see.
Visit our Privacy Policy to learn more. By continuing to use the site, you agree to this use of cookies and data.

Meteo pe oră la Dziadownia

Astăzi, 21 Septembrie, Luni

Timp Temperatura Precipitaţii Vânt Presiune Umiditate
00:00 +13°C° 0 mm 2 m/s 748 mmHg 76%
01:00 +13°C° 0 mm 2 m/s 748 mmHg 78%
02:00 +13°C° 0 mm 2 m/s 748 mmHg 80%
03:00 +12°C° 0 mm 2 m/s 748 mmHg 82%
04:00 +12°C° 0 mm 2 m/s 747 mmHg 83%
05:00 +13°C° 0 mm 2 m/s 748 mmHg 81%
06:00 +13°C° 0 mm 1 m/s 748 mmHg 79%
07:00 +14°C° 0 mm 1 m/s 748 mmHg 77%
08:00 +16°C° 0 mm 1 m/s 748 mmHg 69%
09:00 +19°C° 0 mm 1 m/s 748 mmHg 61%
10:00 +21°C° 0 mm 1 m/s 748 mmHg 52%
11:00 +21°C° 0 mm 2 m/s 748 mmHg 48%
12:00 +24°C° 0 mm 2 m/s 748 mmHg 43%
13:00 +25°C° 0 mm 2 m/s 748 mmHg 39%
14:00 +25°C° 0 mm 2 m/s 747 mmHg 40%
15:00 +25°C° 0 mm 1 m/s 747 mmHg 41%
16:00 +25°C° 0 mm 1 m/s 747 mmHg 42%
17:00 +23°C° 0 mm 1 m/s 747 mmHg 45%
18:00 +22°C° 0 mm 1 m/s 747 mmHg 49%
19:00 +20°C° 0 mm 1 m/s 746 mmHg 52%
20:00 +18°C° 0 mm 2 m/s 746 mmHg 53%
21:00 +18°C° 0 mm 2 m/s 746 mmHg 54%
22:00 +18°C° 0 mm 2 m/s 747 mmHg 55%
23:00 +17°C° 0 mm 2 m/s 746 mmHg 56%

Mâine, 22 Septembrie, Marţi

Timp Temperatura Precipitaţii Vânt Presiune Umiditate
00:00 +17°C° 0 mm 2 m/s 746 mmHg 57%
01:00 +17°C° 0 mm 2 m/s 746 mmHg 58%
02:00 +16°C° 0 mm 3 m/s 746 mmHg 58%
03:00 +16°C° 0 mm 3 m/s 746 mmHg 59%
04:00 +16°C° 0 mm 3 m/s 745 mmHg 60%
05:00 +16°C° 0 mm 3 m/s 745 mmHg 59%
06:00 +17°C° 0 mm 3 m/s 745 mmHg 59%
07:00 +17°C° 0 mm 3 m/s 745 mmHg 59%
08:00 +19°C° 0 mm 4 m/s 745 mmHg 52%
09:00 +22°C° 0 mm 5 m/s 745 mmHg 46%
10:00 +25°C° 0 mm 5 m/s 745 mmHg 39%
11:00 +26°C° 0 mm 5 m/s 745 mmHg 37%
12:00 +27°C° 0 mm 5 m/s 744 mmHg 36%
13:00 +28°C° 0 mm 5 m/s 744 mmHg 34%
14:00 +27°C° 0 mm 5 m/s 744 mmHg 37%
15:00 +27°C° 0 mm 4 m/s 743 mmHg 39%
16:00 +27°C° 0 mm 3 m/s 743 mmHg 42%
17:00 +25°C° 0 mm 3 m/s 743 mmHg 45%
18:00 +22°C° 0 mm 3 m/s 742 mmHg 49%
19:00 +21°C° 0 mm 3 m/s 742 mmHg 52%
20:00 +20°C° 0 mm 3 m/s 742 mmHg 53%
21:00 +19°C° 0 mm 3 m/s 742 mmHg 54%
22:00 +19°C° 0 mm 3 m/s 742 mmHg 55%
23:00 +19°C° 0 mm 3 m/s 742 mmHg 54%

Poimâine, 23 Septembrie, Miercuri

Timp Temperatura Precipitaţii Vânt Presiune Umiditate
00:00 +18°C° 0 mm 3 m/s 741 mmHg 54%
01:00 +18°C° 0 mm 3 m/s 741 mmHg 54%
02:00 +18°C° 0 mm 3 m/s 741 mmHg 55%
03:00 +18°C° 0 mm 3 m/s 740 mmHg 55%
04:00 +17°C° 0 mm 3 m/s 740 mmHg 55%
05:00 +18°C° 0 mm 3 m/s 740 mmHg 55%
06:00 +18°C° 0 mm 4 m/s 740 mmHg 56%
07:00 +18°C° 0 mm 4 m/s 740 mmHg 56%
08:00 +20°C° 0 mm 4 m/s 740 mmHg 52%
09:00 +23°C° 0 mm 5 m/s 740 mmHg 49%
10:00 +26°C° 0 mm 5 m/s 740 mmHg 45%
11:00 +26°C° 0 mm 6 m/s 740 mmHg 45%
12:00 +27°C° 0 mm 6 m/s 739 mmHg 44%
13:00 +27°C° 0 mm 6 m/s 739 mmHg 44%
14:00 +27°C° 0 mm 5 m/s 739 mmHg 47%
15:00 +26°C° 0 mm 4 m/s 739 mmHg 49%
16:00 +26°C° 0 mm 3 m/s 738 mmHg 52%
17:00 +24°C° 0 mm 3 m/s 739 mmHg 57%
18:00 +22°C° 0 mm 3 m/s 739 mmHg 62%
19:00 +20°C° 0 mm 3 m/s 739 mmHg 67%
20:00 +20°C° 0 mm 3 m/s 739 mmHg 71%
21:00 +19°C° 0 mm 2 m/s 739 mmHg 75%
22:00 +18°C° 0 mm 2 m/s 739 mmHg 80%
23:00 +18°C° 0 mm 2 m/s 739 mmHg 82%

24 Septembrie, Joi

Timp Temperatura Precipitaţii Vânt Presiune Umiditate
00:00 +17°C° 0 mm 2 m/s 739 mmHg 85%
01:00 +17°C° 0 mm 2 m/s 739 mmHg 87%
02:00 +17°C° 0 mm 2 m/s 739 mmHg 88%
03:00 +16°C° 0 mm 2 m/s 739 mmHg 89%
04:00 +16°C° 0 mm 3 m/s 739 mmHg 89%
05:00 +17°C° 0 mm 3 m/s 739 mmHg 86%
06:00 +17°C° 0 mm 3 m/s 739 mmHg 83%
07:00 +17°C° 0 mm 3 m/s 739 mmHg 79%
08:00 +19°C° 0 mm 3 m/s 740 mmHg 74%
09:00 +20°C° 0 mm 3 m/s 740 mmHg 68%
10:00 +22°C° 0 mm 3 m/s 740 mmHg 62%
11:00 +23°C° 0 mm 4 m/s 740 mmHg 58%
12:00 +25°C° 0 mm 4 m/s 740 mmHg 54%
13:00 +26°C° 0 mm 4 m/s 740 mmHg 50%
14:00 +26°C° 0 mm 3 m/s 740 mmHg 51%
15:00 +26°C° 0 mm 3 m/s 740 mmHg 52%
16:00 +26°C° 0 mm 2 m/s 740 mmHg 54%
17:00 +24°C° 0 mm 2 m/s 741 mmHg 58%
18:00 +23°C° 0 mm 2 m/s 741 mmHg 63%
19:00 +21°C° 0 mm 1 m/s 741 mmHg 67%
20:00 +21°C° 0 mm 1 m/s 741 mmHg 69%
21:00 +20°C° 0 mm 1 m/s 741 mmHg 72%
22:00 +20°C° 0 mm 1 m/s 741 mmHg 74%
23:00 +18°C° 0 mm 2 m/s 741 mmHg 77%

25 Septembrie, Vineri

Timp Temperatura Precipitaţii Vânt Presiune Umiditate
00:00 +18°C° 0 mm 2 m/s 740 mmHg 80%
01:00 +18°C° 0 mm 3 m/s 740 mmHg 83%
02:00 +17°C° 0 mm 3 m/s 739 mmHg 84%
03:00 +17°C° 0 mm 3 m/s 738 mmHg 84%
04:00 +17°C° 0 mm 4 m/s 738 mmHg 85%
05:00 +17°C° 0 mm 4 m/s 737 mmHg 81%
06:00 +17°C° 0 mm 5 m/s 737 mmHg 78%
07:00 +17°C° 0 mm 5 m/s 737 mmHg 74%
08:00 +20°C° 0 mm 6 m/s 736 mmHg 67%
09:00 +22°C° 0 mm 7 m/s 736 mmHg 61%
10:00 +23°C° 0 mm 8 m/s 736 mmHg 54%
11:00 +23°C° 0 mm 8 m/s 735 mmHg 57%
12:00 +22°C° 0 mm 8 m/s 735 mmHg 61%
13:00 +21°C° 0 mm 8 m/s 735 mmHg 64%
14:00 +20°C° 0.8 mm 7 m/s 734 mmHg 72%
15:00 +17°C° 0.8 mm 6 m/s 734 mmHg 80%
16:00 +16°C° 0.8 mm 5 m/s 734 mmHg 88%
17:00 +15°C° 1.7 mm 6 m/s 734 mmHg 89%
18:00 +14°C° 1.7 mm 6 m/s 734 mmHg 89%
19:00 +12°C° 1.7 mm 7 m/s 735 mmHg 89%
20:00 +11°C° 1 mm 6 m/s 735 mmHg 89%
21:00 +11°C° 1 mm 6 m/s 735 mmHg 88%
22:00 +12°C° 1 mm 5 m/s 736 mmHg 87%
23:00 +12°C° 0 mm 5 m/s 736 mmHg 84%

26 Septembrie, Sâmbătă

Timp Temperatura Precipitaţii Vânt Presiune Umiditate
00:00 +12°C° 0 mm 4 m/s 736 mmHg 80%
01:00 +11°C° 0 mm 3 m/s 736 mmHg 76%
02:00 +11°C° 0 mm 3 m/s 736 mmHg 78%
03:00 +10°C° 0 mm 3 m/s 736 mmHg 79%
04:00 +10°C° 0 mm 2 m/s 736 mmHg 81%
05:00 +10°C° 0 mm 3 m/s 736 mmHg 79%
06:00 +10°C° 0 mm 3 m/s 736 mmHg 78%
07:00 +10°C° 0 mm 3 m/s 737 mmHg 76%
08:00 +10°C° 0 mm 3 m/s 737 mmHg 76%
09:00 +10°C° 0 mm 2 m/s 737 mmHg 75%
10:00 +10°C° 0 mm 2 m/s 737 mmHg 74%
11:00 +10°C° 0.1 mm 3 m/s 736 mmHg 74%
12:00 +11°C° 0.1 mm 3 m/s 736 mmHg 74%
13:00 +11°C° 0.1 mm 3 m/s 736 mmHg 73%
14:00 +10°C° 0.2 mm 3 m/s 736 mmHg 74%
15:00 +10°C° 0.2 mm 4 m/s 735 mmHg 75%
16:00 +10°C° 0.2 mm 4 m/s 735 mmHg 76%
17:00 +9°C° 2.9 mm 5 m/s 734 mmHg 82%
18:00 +8°C° 2.9 mm 6 m/s 733 mmHg 87%
19:00 +7°C° 2.9 mm 8 m/s 733 mmHg 93%
20:00 +6°C° 5.5 mm 8 m/s 732 mmHg 93%
21:00 +6°C° 5.5 mm 8 m/s 732 mmHg 93%
22:00 +6°C° 5.5 mm 9 m/s 731 mmHg 94%
23:00 +6°C° 1.3 mm 9 m/s 731 mmHg 92%
Arată mai mult